Shenandoah Municipal
Saturday 11:15 PM
Temperature39° (50°/36°)
Dew Point34°
Relative Humidity81
%
Visibility10
mi
Pressure1020.0
mb
Wind Direction
Wind SpeedCalm
Precipitation Today0.00"

Last 30 Observations

Time PresWx Temp DP Feels RH% Vsby Pressure Ceiling Direction Speed 1h Precip
10:55 PM 39° 34° 81
%
10
mi
1020.3
mb
Calm 0.00"
10:35 PM 41° 34° 37°75
%
10
mi
1020.0
mb
9,000
ft
SE
130°
6
mph
0.00"
10:15 PM 43° 34° 39°70
%
10
mi
1020.0
mb
9,000
ft
SE
140°
7
mph
0.00"
9:55 PM 43° 34° 37°70
%
10
mi
1019.7
mb
9,000
ft
SE
140°
9
mph
0.00"
9:35 PM 43° 34° 38°70
%
10
mi
1019.7
mb
9,000
ft
SE
130°
8
mph
0.00"
9:15 PM 45° 34° 40°66
%
10
mi
1019.7
mb
9,000
ft
SE
130°
8
mph
0.00"
8:55 PM 45° 32° 42°61
%
10
mi
1019.7
mb
9,000
ft
SE
130°
5
mph
0.00"
8:35 PM 45° 32° 41°61
%
10
mi
1019.3
mb
9,000
ft
ESE
110°
6
mph
0.00"
8:15 PM 46° 28° 43°49
%
10
mi
1019.3
mb
9,000
ft
ESE
120°
6
mph
0.00"
7:55 PM 46° 27° 42°46
%
10
mi
1019.3
mb
9,000
ft
E
100°
9
mph
0.00"
7:35 PM 46° 25° 42°42
%
10
mi
1019.3
mb
9,500
ft
E
90°
8
mph
0.00"
7:15 PM 48° 25° 44°40
%
10
mi
1019.3
mb
9,500
ft
E
90°
10
mph
0.00"
6:55 PM 48° 23° 44°37
%
10
mi
1019.7
mb
10,000
ft
E
100°
9
mph
0.00"
6:35 PM 48° 27° 44°43
%
10
mi
1019.3
mb
10,000
ft
ESE
110°
10
mph
0.00"
6:15 PM 48° 27° 44°43
%
10
mi
1019.7
mb
10,000
ft
SE
130°
10
mph
0.00"
5:55 PM 50° 28° 43
%
10
mi
1019.3
mb
ESE
110°
8
mph
(G15)
0.00"
5:35 PM 50° 30° 46
%
10
mi
1019.7
mb
E
100°
8
mph
0.00"
5:15 PM 50° 34° 54
%
10
mi
1019.7
mb
E
100°
8
mph
(G15)
0.00"
4:55 PM 50° 34° 54
%
10
mi
1019.7
mb
Variable 7
mph
(G14)
0.00"
4:35 PM 48° 32° 43°53
%
10
mi
1019.7
mb
ESE
120°
11
mph
0.00"
4:15 PM 48° 32° 44°53
%
10
mi
1020.0
mb
E
80°
10
mph
(G20)
0.00"
3:55 PM 48° 30° 44°50
%
10
mi
1020.3
mb
E
90°
9
mph
(G16)
0.00"
3:35 PM 48° 30° 44°50
%
10
mi
1020.7
mb
ESE
120°
9
mph
0.00"
3:15 PM 48° 30° 45°50
%
10
mi
1020.7
mb
ESE
120°
7
mph
(G16)
0.00"
2:55 PM 48° 32° 43°53
%
10
mi
1021.0
mb
ESE
110°
11
mph
0.00"
2:35 PM 46° 32° 41°57
%
10
mi
1021.3
mb
E
100°
11
mph
0.00"
2:15 PM 46° 30° 41°53
%
10
mi
1021.7
mb
E
80°
13
mph
0.00"
1:55 PM 46° 30° 41°53
%
10
mi
1022.0
mb
ENE
70°
13
mph
0.00"
1:35 PM 45° 32° 40°61
%
10
mi
1022.7
mb
E
80°
9
mph
(G16)
0.00"
1:15 PM 45° 30° 39°57
%
10
mi
1023.0
mb
E
90°
10
mph
0.00"